Location: Ferchesar
(52.6477°N, 12.4298°E)
Time: 06:07:40
(UTC+02:00)

Transit 4A - Pass Details

Date: 06 March 2021
Orbit: 869 x 976 km, 66.8° (Epoch: 12 April)

Event Time Altitude Azimuth Distance (km) Brightness Sun altitude
Rises 14:28:56 0° 298° (WNW) 3,636 11.1 25.9°
Reaches altitude 10° 14:32:10 10° 314° (NW) 2,672 10.3 25.7°
Maximum altitude 14:36:52 22° 3° (N) 1,934 9.3 25.2°
Drops below altitude 10° 14:41:28 10° 53° (NE) 2,614 9.8 24.8°
Sets 14:44:36 0° 68° (ENE) 3,535 10.4 24.5°
